STARLINK-6059, 56814

Orbit data source: Space-Track

STARLINK-6059, 56814 is a payload satellite owned by SpaceX/Seattle (US) in LEO that was launched on Wed, 31 May 2023 UTC via an FALCON 9 launch vehicle from the Air Force Western Test Range (AFWTR). Payload-class satellites include a variety of spacecraft equipped with specific instruments for various scientific and technological missions. These include communications satellites like Starlink; space stations such as the ISS; scientific satellites like the Hubble; Earth observation satellites from companies like Planet Labs, Umbra, and HawkEye 360; GPS; miniature CubeSats for education and research; and military/defense satellites.

Loading next visibility...
Identifier
56814, 2023-078AZ
Orbit
LEO
Country
Flag of USUS
Related business
Manufacturer
SpaceX/Seattle
Mission
Operational Commercial Communications
Bus & Motor
STARLINK, Unknown motor
Mass
305 kg wet, ~290 kg dry
Launch date (UTC)
2023-05-31 (3 years ago)
Launch vehicle
FALCON 9
Launch site
Air Force Western Test Range (AFWTR)
Object type
Payload
Rocket body
Debris
Shape & HBR
Box + 1 Pan, 10.1 m
Radar Cross Section
11.087 m², Large (>1 m²)

Expand to show TLE details & history
Last TLE update: 2 days ago

TLE from 2 days ago
0 STARLINK-6059
1 56814U 23078AZ  26171.16813744  .00000640  00000-0  61406-4 0  9996
2 56814  70.0010  85.9460 0002443 262.3465  97.7417 14.98330416168039
Epoch: 2026-06-20T04:02Z
TLE epoch observation values (Epoch: 2026-06-20T04:02:07.074Z)
Latitude
-0.00001°
Longitude
117.02988°
Altitude
574.708 km
Speed
7.574 km/s
True Right ascension
05h 43m 47s
True Declination
0° 00' 00"
Sunlit
Object was in daylight at epoch
Visualization orbit readout
Latitude
Unknown
Longitude
Unknown
Altitude
Unknown
Speed
Unknown
Apparent Right ascension
Unknown
Apparent Declination
Unknown
Sunlit
N/A
Visualization observer readout
Local Sidereal Time
21:31:59
Azimuth
Unknown
Elevation
Unknown
Doppler factor
Unknown
Orbital elements
Apogee altitude
571.7 km
Perigee altitude
568.305 km
Semi-major axis
6,948.14 km
Eccentricity
0.00024
Inclination
70.001°
RAAN
85.946°
Arg. of periapsis
262.3465°
True anomaly
97.76944°
Mean anomaly
97.7417°
Eccentric anomaly
97.75557°
Mean motion
3.74749 °/min
Orbital period
96.06 mins
BSTAR
0.000061406
Loading maneuver chart data...
Computing Atmospheric mass density...
Loading historical data...
Loading historical data...
Loading historical data...
Loading historical data...
Loading historical data...
Loading historical data...
Loading historical data...

Documentation

Showing up to 5 results
|